Valley City, ND

5:26 PM CDT on April 28, 2017 (GMT -0500)
Valley City

Weather History for KBAC - May, 2014

Change the Weather History Date:

Saturday, May 10, 2014

  Actual Average (KJMS) Record (KJMS)
Temperature  
Mean Temperature 47 °F -  
Max Temperature 62 °F 66 °F 96 °F (1987)
Min Temperature 32 °F 42 °F 20 °F (1946)
Degree Days  
Heating Degree Days 18    
Moisture  
Dew Point 39 °F    
Average Humidity 73    
Maximum Humidity 100    
Minimum Humidity 31    
Precipitation  
Precipitation 0.07 in - - ()
Sea Level Pressure  
Sea Level Pressure 29.71 in    
Wind  
Wind Speed 8 mph (SE)    
Max Wind Speed 22 mph    
Max Gust Speed 28 mph    
Visibility 10 miles    
Events Rain , Thunderstorm    
Averages and records for this station are not official NWS values.
T = Trace of Precipitation, MM = Missing Value Source: NWS Daily Summary

Daily Weather History Graph

Daily Weather History Graph

Search for Another Location

Airport or City:

Trip Planner

Search our weather history database for the weather conditions in past years. The results will help you decide how hot, cold, wet, or windy it might be!

Date:

Astronomy

May. 10, 2014 Rise Set
Actual Time 6:03 AM CDT 8:54 PM CDT
Civil Twilight 5:28 AM CDT 9:29 PM CDT
Nautical Twilight 4:43 AM CDT 10:14 PM CDT
Astronomical Twilight 3:50 AM CDT 11:08 PM CDT
Moon 4:36 PM CDT (5/10) 3:54 AM CDT (5/10)
Length of Visible Light 16h 01m
Length of Day
14h 51m
Waxing Gibbous, 82% of the Moon is Illuminated
May 10
Waxing Gibbous
May 14
Full
May 21
Last Quarter
May 28
New
Jun 5
First Quarter

Hourly Weather History & Observations

Time (CDT) Temp. Windchill Dew Point Humidity Pressure Visibility Wind Dir Wind Speed Gust Speed Precip Events Conditions
12:15 AM 37.4 °F 33.8 °F 32.0 °F 81% 29.77 in 10.0 mi South 4.6 mph - N/A   Clear
12:35 AM 39.2 °F 35.9 °F 32.0 °F 75% 29.77 in 10.0 mi SSW 4.6 mph - N/A   Clear
12:55 AM 37.4 °F 33.8 °F 32.0 °F 81% 29.77 in 10.0 mi SSW 4.6 mph - N/A   Clear
1:15 AM 37.4 °F 33.8 °F 32.0 °F 81% 29.77 in 10.0 mi South 4.6 mph - N/A   Clear
1:35 AM 37.4 °F 34.9 °F 30.2 °F 75% 29.77 in 10.0 mi South 3.5 mph - N/A   Clear
1:55 AM 37.4 °F 33.8 °F 32.0 °F 81% 29.77 in 10.0 mi South 4.6 mph - N/A   Clear
2:15 AM 35.6 °F 30.7 °F 30.2 °F 81% 29.77 in 10.0 mi SSW 5.8 mph - N/A   Clear
2:35 AM 35.6 °F 31.7 °F 32.0 °F 87% 29.76 in 10.0 mi SSW 4.6 mph - N/A   Clear
2:55 AM 35.6 °F 31.7 °F 30.2 °F 81% 29.76 in 10.0 mi South 4.6 mph - N/A   Clear
3:15 AM 33.8 °F 28.6 °F 32.0 °F 93% 29.76 in 10.0 mi South 5.8 mph - N/A   Clear
3:35 AM 32.0 °F 24.8 °F 32.0 °F 100% 29.76 in 10.0 mi South 8.1 mph - N/A   Clear
3:55 AM 32.0 °F 25.6 °F 32.0 °F 100% 29.76 in 10.0 mi SSW 6.9 mph - N/A   Clear
4:15 AM 33.8 °F 28.6 °F 32.0 °F 93% 29.76 in 10.0 mi SSW 5.8 mph - N/A   Clear
4:55 AM 35.6 °F 29.9 °F 30.2 °F 81% 29.76 in 10.0 mi SSW 6.9 mph - N/A   Clear
5:15 AM 35.6 °F 30.7 °F 30.2 °F 81% 29.76 in 10.0 mi SSW 5.8 mph - N/A   Clear
5:35 AM 32.0 °F 26.4 °F 32.0 °F 100% 29.75 in 10.0 mi SSW 5.8 mph - N/A   Clear
5:55 AM 33.8 °F 29.6 °F 30.2 °F 87% 29.76 in 10.0 mi SSW 4.6 mph - N/A   Clear
6:15 AM 35.6 °F 31.7 °F 30.2 °F 81% 29.76 in 10.0 mi SSW 4.6 mph - N/A   Clear
6:35 AM 35.6 °F 30.7 °F 30.2 °F 81% 29.76 in 10.0 mi SSW 5.8 mph - N/A   Clear
6:55 AM 37.4 °F 32.8 °F 30.2 °F 75% 29.77 in 10.0 mi SSW 5.8 mph - N/A   Clear
7:15 AM 37.4 °F 33.8 °F 32.0 °F 81% 29.77 in 10.0 mi SSW 4.6 mph - N/A   Clear
7:35 AM 39.2 °F 35.9 °F 35.6 °F 87% 29.77 in 10.0 mi South 4.6 mph - N/A   Clear
7:55 AM 41.0 °F 37.1 °F 35.6 °F 81% 29.77 in 10.0 mi South 5.8 mph - N/A   Clear
8:15 AM 44.6 °F 41.4 °F 33.8 °F 66% 29.77 in 10.0 mi South 5.8 mph - N/A   Clear
8:35 AM 46.4 °F 44.3 °F 32.0 °F 57% 29.76 in 10.0 mi South 4.6 mph - N/A   Clear
8:55 AM 48.2 °F - 33.8 °F 58% 29.76 in 10.0 mi South 4.6 mph - N/A   Clear
9:15 AM 53.6 °F - 32.0 °F 44% 29.75 in 10.0 mi SE 6.9 mph - N/A   Clear
9:35 AM 57.2 °F - 28.4 °F 33% 29.75 in 10.0 mi SSE 15.0 mph 21.9 mph N/A   Clear
9:55 AM 57.2 °F - 28.4 °F 33% 29.75 in 10.0 mi SE 12.7 mph 24.2 mph N/A   Clear
10:15 AM 57.2 °F - 28.4 °F 33% 29.74 in 10.0 mi SSE 17.3 mph 24.2 mph N/A   Clear
10:35 AM 59.0 °F - 28.4 °F 31% 29.73 in 10.0 mi SE 21.9 mph 27.6 mph N/A   Clear
10:55 AM 59.0 °F - 28.4 °F 31% 29.74 in 10.0 mi SSE 15.0 mph 23.0 mph N/A   Clear
11:15 AM 59.0 °F - 28.4 °F 31% 29.73 in 10.0 mi SE 20.7 mph 26.5 mph N/A   Clear
11:35 AM 59.0 °F - 28.4 °F 31% 29.73 in 10.0 mi SE 18.4 mph 27.6 mph N/A   Clear
11:55 AM 59.0 °F - 28.4 °F 31% 29.73 in 10.0 mi SE 18.4 mph 24.2 mph N/A   Clear
12:15 PM 59.0 °F - 32.0 °F 36% 29.72 in 10.0 mi SE 18.4 mph 23.0 mph N/A   Clear
12:35 PM 59.0 °F - 32.0 °F 36% 29.71 in 10.0 mi SE 19.6 mph 25.3 mph N/A   Mostly Cloudy
12:55 PM 59.0 °F - 32.0 °F 36% 29.71 in 10.0 mi SE 15.0 mph 19.6 mph N/A   Partly Cloudy
1:15 PM 59.0 °F - 32.0 °F 36% 29.71 in 10.0 mi SE 16.1 mph 21.9 mph N/A   Clear
1:35 PM 59.0 °F - 35.6 °F 42% 29.70 in 10.0 mi SE 16.1 mph 19.6 mph N/A   Partly Cloudy
1:55 PM 60.8 °F - 35.6 °F 39% 29.70 in 10.0 mi SE 11.5 mph - N/A   Scattered Clouds
2:15 PM 62.6 °F - 37.4 °F 39% 29.70 in 10.0 mi ESE 17.3 mph 21.9 mph N/A   Scattered Clouds
2:35 PM 60.8 °F - 37.4 °F 42% 29.70 in 10.0 mi SE 17.3 mph 24.2 mph N/A   Scattered Clouds
2:55 PM 60.8 °F - 39.2 °F 45% 29.69 in 10.0 mi SE 17.3 mph 24.2 mph N/A   Mostly Cloudy
3:15 PM 59.0 °F - 41.0 °F 51% 29.69 in 10.0 mi SE 13.8 mph - N/A Rain Light Rain
3:35 PM 59.0 °F - 42.8 °F 55% 29.69 in 10.0 mi SE 12.7 mph 18.4 mph N/A   Overcast
3:55 PM 59.0 °F - 42.8 °F 55% 29.69 in 10.0 mi SSE 11.5 mph 21.9 mph N/A   Overcast
4:15 PM 55.4 °F - 50.0 °F 82% 29.69 in 7.0 mi SSE 10.4 mph 21.9 mph N/A Rain Light Rain
4:35 PM 55.4 °F - 50.0 °F 82% 29.68 in 10.0 mi ESE 8.1 mph - N/A   Mostly Cloudy
4:55 PM 55.4 °F - 55.4 °F 100% 29.67 in 5.0 mi East 6.9 mph - 0.01 in Rain Light Rain
5:15 PM 55.4 °F - 55.4 °F 100% 29.65 in 10.0 mi East 9.2 mph - N/A Rain Light Rain
5:35 PM 57.2 °F - 55.4 °F 94% 29.65 in 10.0 mi East 10.4 mph - N/A   Partly Cloudy
5:55 PM 59.0 °F - 55.4 °F 88% 29.64 in 10.0 mi East 12.7 mph 18.4 mph N/A   Clear
6:15 PM 59.0 °F - 51.8 °F 77% 29.64 in 10.0 mi East 15.0 mph - N/A   Partly Cloudy
6:35 PM 59.0 °F - 51.8 °F 77% 29.64 in 10.0 mi East 11.5 mph 18.4 mph N/A   Scattered Clouds
6:55 PM 59.0 °F - 51.8 °F 77% 29.64 in 10.0 mi East 12.7 mph - N/A   Partly Cloudy
7:15 PM 59.0 °F - 51.8 °F 77% 29.64 in 10.0 mi East 10.4 mph 16.1 mph N/A Thunderstorm Thunderstorm
7:35 PM 59.0 °F - 51.8 °F 77% 29.64 in 10.0 mi East 13.8 mph - N/A Thunderstorm Mostly Cloudy
7:55 PM 57.2 °F - 53.6 °F 88% 29.64 in 9.0 mi East 11.5 mph - N/A   Overcast
8:15 PM 55.4 °F - 55.4 °F 100% 29.64 in 2.5 mi ESE 20.7 mph 25.3 mph 0.02 in Rain Rain
8:35 PM 55.4 °F - 55.4 °F 100% 29.65 in 3.0 mi ENE 13.8 mph 24.2 mph 0.06 in Rain , Thunderstorm Light Thunderstorms and Rain
8:55 PM 55.4 °F - 55.4 °F 100% 29.65 in 10.0 mi NE 10.4 mph - 0.06 in   Overcast
9:15 PM 53.6 °F - 53.6 °F 100% 29.65 in 10.0 mi NE 4.6 mph - N/A   Overcast
9:35 PM 53.6 °F - 53.6 °F 100% 29.65 in 10.0 mi ENE 8.1 mph - N/A   Overcast
9:55 PM 53.6 °F - 53.6 °F 100% 29.65 in 10.0 mi ENE 6.9 mph - N/A Thunderstorm Overcast
10:15 PM 53.6 °F - 53.6 °F 100% 29.66 in 10.0 mi North 4.6 mph - N/A   Overcast
10:35 PM 51.8 °F - 51.8 °F 100% 29.67 in 10.0 mi NE 6.9 mph - N/A   Mostly Cloudy
10:55 PM 51.8 °F - 51.8 °F 100% 29.67 in 10.0 mi ENE 4.6 mph - N/A   Mostly Cloudy
11:15 PM 50.0 °F - 50.0 °F 100% 29.67 in 10.0 mi East 5.8 mph - N/A   Partly Cloudy
11:35 PM 50.0 °F - 50.0 °F 100% 29.67 in 10.0 mi ESE 4.6 mph - N/A   Mostly Cloudy
11:55 PM 51.8 °F - 51.8 °F 100% 29.67 in 10.0 mi East 6.9 mph - N/A   Overcast